Temperature
3 2 2 2 2 2 2 2 2 1 1 2 2 2 2 2 2 2 2 3 3 3 3 3 3 3 3 4 4 4 4 4 5 5 5 5 5 5
2 2 2 2 1 1 1 1 1 1 1 1 1 1 2 2 2 2 2 2 3 3 3 3 3 3 3 3 4 4 4 4 4 4 5 5 5 5
2 2 2 1 1 1 1 1 1 0 0 1 1 1 1 1 1 2 2 2 2 2 2 2 3 3 3 3 3 3 4 4 4 4 4 4 4 4
2 1 1 1 1 1 0 0 0 0 0 0 0 0 0 1 1 1 1 2 2 2 2 2 2 3 3 3 3 3 3 3 4 4 4 4 4 4
1 1 1 1 0 0 0 0 0 -0 -0 -0 -0 -0 -0 0 1 1 1 1 2 2 2 2 2 2 2 3 3 3 3 3 3 3 3 3 3 3
1 1 1 0 0 0 -0 -0 -0 -0 -1 -1 -1 -1 -0 -0 0 0 0 1 1 1 2 2 2 2 2 2 2 2 2 3 3 3 3 3 3 3
0 0 0 0 0 -0 -1 -1 -1 -1 -1 -1 -1 -1 -1 -1 -1 -1 -1 -0 0 1 1 1 1 1 2 2 2 2 2 2 2 2 3 3 3 3
-0 -0 -0 -0 -0 -0 -1 -1 -1 -1 -1 -1 -1 -1 -1 -1 -1 -1 -1 -1 -1 0 0 1 1 1 1 1 1 2 2 2 2 2 2 2 2 2
-1 -1 -1 -1 -1 -1 -1 -1 -1 -1 -1 -1 -1 -1 -1 -1 -1 -1 -1 -1 -1 -0 -0 0 0 0 1 1 1 1 1 1 1 1 1 2 2 2
-1 -1 -1 -1 -1 -1 -1 -1 -1 -1 -1 -1 -1 -1 -1 -1 -1 -1 -1 -1 -1 -1 -1 -1 -0 -0 0 1 1 1 1 1 1 1 1 1 1 1
-1 -1 -1 -2 -1 -1 -2 -2 -2 -2 -1 -1 -1 -1 -1 -1 -1 -2 -2 -2 -2 -1 -1 -2 -1 -1 -0 0 0 0 0 0 0 0 1 1 1 1
-2 -2 -2 -2 -2 -2 -2 -2 -2 -2 -2 -1 -2 -2 -2 -2 -2 -2 -2 -2 -2 -2 -2 -2 -2 -2 -1 -1 -0 -0 -0 -0 -0 0 0 0 0 0
-2 -2 -2 -2 -2 -2 -2 -2 -2 -2 -2 -2 -2 -2 -2 -2 -2 -2 -2 -2 -2 -2 -2 -2 -2 -2 -2 -2 -1 -1 -1 -1 -1 -1 -1 -0 -0 -0
-3 -3 -3 -3 -3 -3 -3 -3 -2 -2 -2 -2 -2 -2 -2 -2 -2 -2 -2 -2 -2 -2 -2 -2 -2 -2 -2 -3 -2 -2 -2 -2 -2 -1 -1 -1 -1 -1
-3 -3 -3 -3 -3 -3 -3 -3 -3 -3 -3 -3 -3 -3 -3 -3 -2 -2 -2 -2 -2 -2 -2 -2 -2 -2 -2 -3 -3 -2 -2 -2 -2 -2 -2 -1 -1 -1
-3 -3 -3 -3 -3 -3 -3 -3 -3 -3 -3 -3 -3 -3 -3 -3 -3 -3 -3 -3 -2 -2 -2 -2 -2 -2 -2 -2 -2 -2 -3 -3 -2 -2 -2 -2 -2 -2
-3 -3 -3 -3 -3 -4 -4 -4 -4 -4 -4 -3 -3 -3 -4 -4 -3 -3 -3 -3 -3 -3 -2 -2 -2 -3 -3 -3 -3 -3 -3 -3 -3 -3 -2 -2 -2 -2
-3 -4 -4 -4 -4 -4 -4 -4 -4 -4 -4 -4 -4 -4 -4 -4 -4 -4 -4 -4 -4 -3 -3 -3 -3 -3 -3 -3 -3 -3 -3 -3 -3 -3 -3 -3 -3 -2
-4 -4 -4 -4 -4 -4 -4 -4 -4 -4 -4 -4 -4 -4 -4 -4 -4 -4 -4 -4 -4 -4 -4 -3 -3 -3 -4 -4 -3 -3 -3 -3 -3 -3 -3 -3 -3 -3
-4 -4 -4 -4 -4 -5 -5 -5 -5 -5 -5 -5 -5 -5 -5 -5 -5 -5 -5 -5 -4 -4 -4 -4 -4 -4 -4 -4 -4 -3 -3 -4 -4 -3 -3 -3 -3 -3
-4 -4 -4 -4 -4 -5 -5 -5 -5 -5 -5 -5 -5 -5 -5 -5 -5 -5 -5 -5 -5 -5 -4 -4 -4 -4 -4 -4 -4 -4 -4 -4 -4 -4 -4 -3 -3 -3
-4 -4 -4 -4 -4 -5 -5 -5 -5 -5 -5 -5 -5 -5 -5 -5 -5 -5 -5 -5 -5 -5 -4 -4 -4 -4 -4 -4 -4 -4 -4 -4 -4 -4 -4 -4 -4 -4
-4 -4 -4 -5 -5 -5 -5 -5 -5 -5 -5 -5 -5 -5 -5 -5 -5 -5 -5 -5 -5 -5 -5 -5 -5 -4 -5 -4 -4 -5 -4 -4 -4 -4 -4 -4 -4 -4
Wind_Speed
6 6 5 5 5 5 5 5 5 5 6 5 3 4 4 5 6 7 7 8 10 11 11 11 11 10 10 10 11 11 11 11 11 11 10 11 10 10
5 6 6 5 5 5 5 5 6 6 6 5 5 5 5 5 7 8 8 10 10 10 11 11 10 10 10 10 11 11 11 11 11 10 9 10 9 9
5 6 6 6 5 5 5 5 5 6 7 7 5 5 6 6 6 7 7 8 8 10 11 10 10 9 10 11 11 11 10 11 10 9 9 9 9 9
7 6 7 5 7 6 5 5 5 6 7 8 6 5 7 6 6 7 6 7 8 10 10 10 9 9 10 10 10 10 10 10 9 9 8 8 8 9
7 7 7 7 7 6 6 5 5 5 6 7 6 5 5 5 5 6 7 6 7 8 10 9 9 9 10 10 10 9 8 8 7 7 8 8 9 9
7 7 7 7 7 7 6 6 5 5 6 6 6 5 4 4 4 5 5 5 6 6 6 7 8 8 9 9 9 8 8 8 7 8 8 8 8 9
7 7 7 7 8 7 5 6 5 5 5 5 6 5 5 4 4 4 6 6 6 4 4 5 5 5 6 7 8 8 8 8 8 8 7 8 8 8
7 7 7 8 8 9 9 8 7 7 6 6 6 6 7 6 5 5 5 5 5 3 4 5 5 5 5 5 6 7 8 8 8 8 7 7 7 7
7 6 5 6 7 7 8 9 9 9 9 8 8 8 7 6 6 6 6 6 6 5 5 6 5 5 5 5 7 8 8 7 7 8 8 8 7 7
7 7 7 7 7 7 7 7 7 7 8 7 8 8 7 6 6 6 6 6 6 4 4 4 5 5 5 6 6 7 7 7 8 8 8 8 7 7
6 6 6 7 7 7 7 6 6 6 6 8 8 7 7 7 5 4 4 4 4 4 3 3 3 5 5 5 4 5 7 7 8 8 8 7 7 7
5 6 6 7 6 7 6 6 6 6 5 5 5 6 6 6 6 5 5 4 4 3 2 2 3 3 3 3 4 4 5 6 7 7 7 8 8 6
5 5 5 6 6 6 6 6 5 5 4 4 4 4 4 3 4 4 4 4 5 4 3 2 3 3 3 4 4 5 5 5 5 6 7 7 7 6
5 4 4 6 6 6 6 5 4 4 3 3 4 4 3 3 3 4 4 5 5 6 6 5 4 4 4 5 5 4 5 5 5 5 5 6 6 7
5 5 4 5 5 5 5 4 4 3 3 3 4 4 3 3 3 3 3 3 4 5 6 6 5 5 5 5 5 5 5 5 4 4 4 4 4 4
4 4 4 4 3 3 3 3 3 3 3 4 3 3 2 2 2 2 3 3 3 4 4 5 5 5 5 5 5 5 5 4 4 4 4 4 4 4
3 2 2 2 2 2 2 2 2 2 3 2 2 2 2 2 2 2 2 3 3 3 4 4 4 4 5 5 4 5 5 5 5 4 3 4 4 4
4 3 3 3 3 3 2 2 2 2 2 2 3 2 3 2 2 2 2 3 3 4 4 3 3 2 2 3 4 5 5 5 5 4 3 3 4 4
4 3 3 3 3 2 2 2 2 2 2 2 2 2 3 3 2 3 3 3 3 4 4 3 3 2 3 4 3 3 4 5 5 4 3 3 4 4
3 3 3 3 3 2 2 2 2 2 2 2 2 2 3 3 3 3 3 3 3 4 4 4 3 3 4 4 4 4 4 4 4 3 3 3 4 4
3 3 3 3 2 2 2 2 2 2 2 2 2 2 3 2 3 3 3 4 4 4 4 4 4 5 4 3 3 3 3 3 3 3 3 3 3 2
3 3 3 3 3 2 2 2 2 2 2 2 3 3 3 3 3 4 4 4 4 4 4 4 4 3 2 3 3 4 4 3 3 3 3 3 2 2
3 2 2 3 3 3 2 3 3 3 2 2 3 3 3 3 3 3 4 4 3 3 3 4 3 3 2 2 3 3 3 3 3 2 2 2 2 3
Wind_Direction
231 232 236 239 240 243 245 248 252 264 269 268 270 270 279 279 282 283 283 288 291 291 291 292 293 292 291 290 289 292 294 293 292 293 290 288 287 286
230 231 235 237 239 240 241 247 254 258 266 272 272 278 281 277 279 281 280 285 281 286 286 287 288 290 289 289 288 288 291 292 290 289 288 288 289 289
231 232 236 238 240 241 241 243 250 254 260 274 276 277 277 278 279 278 280 279 279 281 283 284 287 289 290 290 287 287 289 291 288 286 287 288 289 290
232 231 235 237 240 242 241 243 249 253 258 268 274 276 276 278 283 282 281 278 278 279 281 282 283 284 287 288 286 289 291 291 286 285 286 288 287 288
231 231 234 234 238 240 241 245 250 254 256 261 270 277 277 282 290 285 282 281 278 276 280 275 276 281 283 285 288 292 296 294 291 293 289 286 285 284
230 229 232 233 237 239 241 243 249 255 255 257 263 272 279 289 288 290 288 288 285 281 278 281 280 278 277 282 287 289 296 297 293 293 288 286 282 281
230 229 230 234 239 241 244 245 246 253 254 256 260 268 270 282 282 285 285 290 288 278 288 286 279 275 274 275 279 285 290 294 295 296 292 290 281 276
234 234 232 231 235 238 243 248 247 247 250 253 257 258 264 268 278 277 282 287 287 283 291 287 279 276 275 274 281 287 288 293 297 299 298 297 292 285
236 236 235 235 235 240 239 240 243 246 249 252 254 254 260 264 268 271 272 275 279 288 289 280 281 281 282 278 285 288 290 291 295 299 299 299 297 291
237 236 236 235 233 238 237 244 247 247 251 254 258 262 262 263 260 262 265 278 290 282 273 271 286 291 295 283 280 280 284 289 292 295 297 296 295 292
239 239 238 238 235 232 236 244 252 258 259 260 271 274 277 272 267 257 259 270 287 286 274 263 282 302 295 282 278 279 281 287 292 293 295 296 297 293
241 238 236 240 238 230 232 239 249 259 262 260 260 262 265 258 251 243 239 249 274 273 269 270 274 301 298 287 293 290 281 281 284 287 288 289 293 290
240 240 237 235 239 239 242 243 249 261 257 258 261 266 265 260 263 265 255 243 251 258 255 261 270 279 270 287 298 296 290 289 284 283 286 290 289 282
240 241 237 229 235 239 243 244 241 251 251 253 257 261 265 268 273 277 274 268 260 259 260 263 262 264 268 278 284 293 295 293 289 288 286 286 282 279
240 239 238 230 235 237 240 238 231 238 242 250 255 260 269 272 276 279 285 286 284 274 263 261 263 261 261 262 272 285 294 295 290 291 290 286 282 282
236 227 225 228 233 242 238 233 240 241 244 247 253 265 275 274 270 277 284 294 297 298 292 276 265 261 264 267 266 276 285 286 290 291 291 290 284 278
212 220 224 219 228 238 240 246 250 246 250 248 245 255 267 271 278 284 281 284 280 290 302 308 296 280 268 262 266 274 282 288 287 289 292 292 291 285
203 213 221 224 229 232 236 244 251 251 252 251 250 253 260 266 279 287 283 277 276 282 290 298 310 310 292 276 258 267 276 282 286 284 279 283 291 295
213 220 223 223 226 228 238 243 255 259 253 252 256 258 264 270 275 277 278 282 282 283 286 283 283 274 272 283 287 266 272 282 287 283 278 274 280 292
220 222 229 226 222 225 230 237 251 261 259 254 257 259 259 264 271 274 275 281 285 290 290 288 279 269 264 276 287 296 284 276 277 276 280 284 284 284
222 223 226 222 222 224 228 233 242 255 267 266 258 258 257 257 264 274 277 282 284 284 285 289 293 292 288 285 281 292 306 295 274 270 270 270 281 293
223 221 223 219 217 220 224 227 237 248 255 259 262 261 260 256 256 263 268 272 280 285 292 296 303 301 281 264 272 290 307 319 316 298 289 263 252 246
225 223 225 218 213 218 223 225 232 244 255 263 263 262 263 262 262 262 268 272 278 289 296 302 307 302 290 271 275 290 306 315 323 335 334 326 257 244
Height
1463 1463 1463 1464 1464 1464 1464 1464 1464 1462 1460 1459 1459 1458 1457 1456 1454 1453 1452 1451 1450 1449 1447 1446 1445 1444 1443 1442 1441 1441 1439 1438 1437 1436 1435 1434 1434 1434
1459 1459 1459 1459 1459 1459 1460 1460 1460 1460 1457 1455 1454 1453 1453 1452 1450 1449 1447 1446 1446 1444 1443 1442 1441 1440 1439 1437 1437 1435 1434 1433 1432 1431 1430 1430 1429 1429
1454 1454 1454 1454 1455 1455 1455 1455 1455 1455 1453 1451 1451 1450 1449 1447 1446 1445 1444 1442 1441 1440 1439 1437 1436 1435 1434 1433 1432 1430 1429 1428 1427 1426 1426 1425 1425 1424
1449 1449 1450 1450 1450 1450 1450 1450 1451 1450 1450 1447 1446 1445 1444 1443 1442 1441 1439 1438 1437 1436 1435 1433 1432 1431 1430 1428 1427 1426 1424 1423 1422 1422 1421 1421 1420 1420
1445 1445 1445 1445 1446 1446 1446 1446 1446 1446 1445 1444 1442 1442 1440 1439 1438 1437 1435 1434 1433 1432 1430 1429 1428 1427 1425 1424 1423 1421 1420 1418 1417 1417 1416 1416 1416 1416
1440 1440 1441 1441 1441 1441 1442 1442 1442 1442 1441 1440 1439 1438 1436 1435 1434 1433 1431 1430 1429 1427 1426 1425 1424 1423 1421 1420 1419 1417 1416 1414 1413 1412 1412 1412 1411 1411
1436 1436 1436 1436 1437 1437 1437 1437 1438 1437 1437 1436 1435 1434 1432 1431 1430 1429 1428 1426 1425 1424 1422 1421 1420 1419 1417 1416 1415 1413 1412 1411 1409 1408 1408 1408 1408 1407
1431 1431 1431 1432 1432 1433 1433 1433 1433 1433 1433 1432 1431 1429 1428 1428 1427 1426 1425 1423 1421 1421 1418 1417 1416 1415 1414 1413 1411 1410 1408 1407 1406 1405 1404 1404 1403 1403
1427 1427 1427 1427 1428 1428 1428 1429 1429 1429 1429 1428 1427 1425 1425 1424 1423 1422 1422 1420 1418 1417 1416 1413 1413 1411 1410 1409 1408 1406 1405 1404 1402 1401 1400 1400 1399 1399
1423 1422 1422 1423 1423 1424 1424 1424 1424 1424 1424 1424 1423 1422 1422 1421 1420 1419 1418 1416 1415 1414 1413 1411 1409 1408 1407 1406 1404 1403 1402 1401 1399 1398 1397 1397 1396 1396
1418 1418 1418 1418 1419 1420 1420 1420 1420 1420 1420 1419 1419 1418 1417 1417 1417 1416 1414 1413 1411 1411 1411 1409 1406 1405 1403 1402 1401 1400 1399 1398 1396 1395 1394 1393 1393 1392
1414 1414 1414 1414 1415 1415 1416 1416 1415 1415 1415 1415 1415 1414 1414 1413 1413 1412 1411 1410 1409 1408 1407 1406 1404 1403 1400 1399 1398 1397 1396 1394 1393 1392 1391 1390 1390 1389
1410 1410 1410 1410 1411 1411 1412 1412 1411 1412 1411 1411 1411 1410 1410 1409 1409 1409 1408 1407 1406 1405 1405 1404 1402 1401 1399 1396 1395 1394 1393 1391 1390 1388 1387 1387 1386 1386
1406 1406 1406 1407 1407 1408 1408 1408 1408 1408 1408 1407 1407 1406 1406 1405 1405 1405 1405 1404 1403 1402 1402 1402 1400 1398 1396 1394 1392 1391 1391 1389 1387 1385 1384 1383 1383 1382
1403 1403 1403 1403 1404 1404 1404 1405 1405 1404 1404 1403 1403 1403 1403 1402 1402 1401 1401 1400 1400 1399 1399 1398 1397 1396 1394 1392 1390 1388 1387 1386 1384 1383 1381 1380 1379 1378
1400 1400 1400 1400 1400 1401 1401 1401 1401 1401 1401 1400 1400 1400 1400 1399 1399 1398 1397 1396 1396 1395 1395 1395 1394 1393 1391 1389 1388 1385 1385 1383 1381 1380 1378 1377 1376 1376
1397 1397 1396 1397 1397 1397 1398 1398 1398 1398 1398 1398 1397 1397 1397 1396 1396 1395 1395 1394 1393 1391 1391 1391 1390 1390 1388 1387 1385 1383 1382 1380 1379 1377 1376 1374 1374 1373
1394 1393 1393 1394 1394 1394 1394 1395 1395 1395 1395 1395 1395 1394 1394 1393 1393 1393 1392 1391 1390 1389 1388 1387 1386 1385 1385 1383 1383 1380 1379 1377 1376 1375 1374 1372 1370 1371
1390 1390 1390 1391 1391 1392 1392 1392 1392 1392 1392 1392 1392 1392 1392 1391 1391 1390 1389 1389 1387 1386 1386 1385 1384 1383 1381 1379 1379 1379 1377 1374 1373 1372 1371 1370 1368 1368
1387 1387 1388 1388 1388 1389 1389 1389 1389 1390 1389 1389 1389 1389 1389 1389 1388 1388 1387 1386 1385 1384 1383 1382 1381 1380 1379 1377 1376 1375 1375 1373 1371 1369 1368 1368 1366 1366
1385 1385 1385 1385 1386 1386 1386 1386 1387 1387 1387 1387 1387 1386 1387 1386 1386 1385 1385 1384 1383 1381 1380 1379 1378 1378 1377 1375 1374 1372 1371 1371 1369 1368 1366 1365 1364 1363
1382 1382 1383 1383 1383 1383 1383 1384 1384 1384 1385 1385 1384 1384 1384 1384 1383 1383 1382 1381 1380 1379 1378 1377 1376 1375 1374 1373 1371 1370 1368 1368 1367 1366 1365 1364 1363 1362
1380 1380 1380 1380 1381 1381 1381 1381 1381 1382 1382 1382 1382 1381 1381 1381 1381 1380 1380 1379 1378 1377 1376 1374 1374 1373 1372 1371 1370 1368 1367 1366 1364 1363 1363 1363 1362 1362